This is the latest recevied weather packets stored in our database for station/object W5GMO. If no packets are shown the sender has not sent any weather packets the latest 10 day(s).
| Time | Temp. | Humidity | Pressure | Rain* | Wind** | Luminosity | Snow |
|---|---|---|---|---|---|---|---|
| 1788094468 | 23.89° C | 1% | 1023.1 hPa | 0 mm | - | 81 W/m² | - |
| 1788094166 | 23.89° C | 1% | 1023.1 hPa | 0 mm | - | 138 W/m² | - |
| 1788093861 | 23.89° C | 1% | 1023.2 hPa | 0 mm | - | 94 W/m² | - |
| 1788093557 | 23.89° C | 1% | 1023.1 hPa | 0 mm | - | 97 W/m² | - |
| 1788093254 | 23.89° C | 1% | 1023 hPa | 0 mm | - | 92 W/m² | - |
| 1788092952 | 23.89° C | 1% | 1023.2 hPa | 0 mm | - | 81 W/m² | - |
| 1788092646 | 23.89° C | 1% | 1023 hPa | 0 mm | - | 73 W/m² | - |
| 1788092346 | 23.89° C | 1% | 1023.2 hPa | 0 mm | - | 71 W/m² | - |
| 1788092041 | 23.89° C | 1% | 1023.1 hPa | 0 mm | - | 72 W/m² | - |
| 1788091736 | 23.89° C | 1% | 1023 hPa | 0 mm | - | 51 W/m² | - |
| 1788091432 | 23.33° C | 1% | 1022.8 hPa | 0 mm | - | 58 W/m² | - |
| 1788091128 | 23.33° C | 1% | 1022.9 hPa | 0 mm | - | 49 W/m² | - |
| 1788090824 | 23.33° C | 1% | 1022.9 hPa | 0 mm | - | 50 W/m² | - |
| 1788090519 | 23.33° C | 1% | 1023 hPa | 0 mm | - | 46 W/m² | - |
| 1788090216 | 23.33° C | 1% | 1022.9 hPa | 0 mm | - | 51 W/m² | - |
| 1788089910 | 23.33° C | 1% | 1023.1 hPa | 0 mm | - | 58 W/m² | - |
| 1788089605 | 23.33° C | 1% | 1023 hPa | 0 mm | - | 40 W/m² | - |
| 1788089301 | 23.33° C | 1% | 1023.3 hPa | 0 mm | - | 32 W/m² | - |
| 1788088997 | 23.33° C | 1% | 1023.2 hPa | 0 mm | - | 25 W/m² | - |
| 1788088693 | 23.33° C | 1% | 1023.1 hPa | 0 mm | - | 28 W/m² | - |
| 1788088388 | 23.33° C | 1% | 1023.1 hPa | 0 mm | - | 25 W/m² | - |
| 1788088088 | 23.33° C | 1% | 1023.1 hPa | 0 mm | - | 23 W/m² | - |
| 1788087785 | 23.33° C | 1% | 1023.2 hPa | 0 mm | - | 16 W/m² | - |
| 1788087483 | 23.33° C | 1% | 1023.4 hPa | 0 mm | - | 8 W/m² | - |
| 1788087180 | 23.33° C | 1% | 1023.1 hPa | 0 mm | - | 6 W/m² | - |
* Rain latest hour (hover to see other rain measurements)
** Current wind speed in m/s (hover to see current wind gust speed)